Theta_e
309 309 310 311 311 310 310 310 311 312 313 312 310 312 304 303 300 316 315 316 313 303 296 298 296 294 296 300 300 304 300 297 299 297 298 296 298 297 298 298 297 298 297 297 297 297 293 296 294 295 295 297 300 303 303 303 300 300 294 297 294 295 288 287 288 292 292 291 294 294 294 294 290 291 291 292 289 291 289 287 284 284 284 283 282 280 284
308 309 309 310 311 310 309 310 310 310 311 310 313 307 303 304 304 307 315 315 312 300 290 291 293 295 297 298 297 302 301 300 298 297 298 296 296 295 296 299 300 298 301 298 296 299 290 297 296 293 297 295 303 302 302 302 298 297 294 293 297 290 288 289 285 284 286 286 287 288 290 290 286 287 291 293 293 292 291 288 285 283 286 285 283 280 285
308 308 308 309 310 310 309 309 309 309 310 311 309 303 305 303 304 305 308 313 309 297 299 295 293 293 293 294 294 296 298 302 303 300 298 299 298 297 295 298 300 298 300 298 299 301 297 290 298 298 296 297 298 301 301 301 298 300 300 298 301 292 289 288 284 282 280 280 280 281 282 285 287 290 291 292 292 291 288 285 286 283 286 287 285 285 289
307 308 308 308 310 310 309 308 309 309 309 309 307 306 303 298 292 299 302 306 305 304 305 301 296 293 293 292 294 296 294 300 302 303 302 301 300 299 300 300 301 298 297 295 296 296 299 296 291 294 292 295 293 300 300 300 300 298 298 296 299 288 291 292 290 288 286 288 289 290 290 285 284 286 288 290 291 292 292 289 286 284 285 285 288 289 289
307 308 308 308 308 310 309 308 308 308 308 308 305 305 302 301 296 293 290 301 302 300 303 300 299 294 296 289 293 292 294 297 298 304 297 302 301 300 300 299 296 296 296 294 294 296 296 297 296 294 294 294 294 296 298 299 298 296 296 298 292 286 288 291 292 291 292 294 293 294 292 287 288 287 287 289 290 290 289 288 286 290 286 284 290 290 288
306 307 307 307 308 309 309 308 308 308 307 308 306 299 301 293 297 299 301 296 291 295 296 300 298 297 297 292 296 292 292 294 292 300 301 303 303 297 298 299 299 298 296 295 291 293 294 295 293 296 295 291 293 292 295 294 294 295 293 295 292 288 288 292 291 291 294 295 295 295 292 291 290 290 289 287 289 289 287 288 291 290 287 286 289 290 289
306 306 307 308 308 308 309 308 308 308 307 307 303 297 299 298 296 297 303 295 294 293 298 300 299 296 295 293 294 292 292 291 295 296 297 299 297 300 292 295 297 298 298 296 292 293 289 290 295 292 292 290 289 287 291 292 292 291 288 292 291 290 289 290 291 289 291 293 293 295 293 292 291 290 290 290 289 288 289 289 291 290 289 291 292 290 290
305 305 307 307 307 308 309 308 308 308 307 306 300 300 298 293 295 290 298 297 296 294 296 296 296 295 296 290 291 292 291 291 294 297 297 292 295 301 296 296 298 298 298 297 294 295 296 295 291 295 294 290 292 290 293 287 289 291 289 291 290 291 288 292 288 287 288 291 292 292 292 292 289 291 291 291 290 289 289 290 290 290 290 292 291 289 289
305 305 306 306 307 307 308 308 307 306 306 300 299 298 299 297 296 299 296 291 293 294 294 294 292 289 294 291 292 292 292 292 295 295 299 297 295 297 296 298 298 299 298 297 297 299 298 298 297 297 297 292 295 293 291 293 287 289 288 287 286 290 286 287 288 285 286 289 288 289 289 289 289 289 290 290 289 287 289 288 291 289 288 289 289 288 289
304 304 305 306 306 307 307 308 307 306 306 300 299 295 299 297 298 298 298 290 293 291 291 293 292 285 290 294 294 293 293 295 297 293 298 299 300 300 299 299 298 296 296 296 298 301 301 300 299 299 299 300 298 299 297 296 291 288 288 288 287 288 288 287 287 284 285 289 288 288 288 287 285 286 289 291 291 292 292 292 292 291 292 288 286 288 293
303 304 305 305 306 306 307 307 307 306 304 298 297 297 297 296 295 295 295 288 286 288 290 289 289 289 293 294 294 296 295 296 297 291 289 297 298 301 301 299 296 295 295 299 301 300 298 296 295 297 297 297 297 296 297 296 296 292 289 287 287 288 288 287 288 283 285 286 286 287 284 279 281 291 292 294 290 291 289 289 291 292 292 291 293 291 291
303 303 304 304 305 306 306 307 307 306 304 303 303 299 300 301 298 295 291 287 286 288 288 286 288 288 288 292 293 293 294 295 295 298 293 294 295 296 297 299 298 292 296 297 297 297 296 297 296 295 293 292 293 295 295 294 294 295 294 291 287 287 288 287 288 284 284 284 285 282 278 280 289 285 286 288 294 294 292 292 293 293 293 292 291 289 288
302 302 304 304 304 305 306 306 307 306 305 303 302 297 301 301 299 295 292 288 286 285 285 286 290 290 290 291 289 289 289 289 290 293 296 295 290 292 295 297 297 295 296 298 298 299 293 287 286 287 287 288 288 290 291 292 292 294 294 295 291 287 287 286 285 286 282 280 283 276 279 286 284 284 282 285 289 289 291 290 292 293 293 293 291 292 290
301 302 303 303 304 305 305 306 306 306 305 304 300 300 301 299 296 294 293 287 286 287 288 287 286 286 288 288 288 286 288 287 287 289 288 288 291 292 290 289 290 291 293 298 297 294 287 287 286 286 285 286 286 285 286 288 286 290 291 292 293 290 288 287 284 287 280 282 282 283 287 286 287 281 282 286 287 287 288 286 289 293 293 292 292 292 290
300 301 302 303 303 304 305 305 305 306 306 305 302 300 300 299 299 297 295 292 287 286 288 285 286 287 287 287 287 285 285 285 288 286 285 287 285 286 287 288 290 291 292 294 289 289 287 286 283 283 284 282 279 283 285 284 284 283 285 287 288 291 287 288 285 283 286 283 281 280 281 278 285 285 284 290 287 292 292 290 288 290 291 291 292 291 289
300 300 301 302 302 303 304 304 305 305 305 305 302 299 300 301 300 299 295 290 288 284 286 291 292 288 286 286 288 287 286 286 286 285 284 285 284 286 287 288 288 291 291 288 288 288 286 284 283 284 280 282 285 282 279 283 281 283 284 285 286 286 288 288 286 284 284 282 280 280 278 281 283 283 282 286 284 288 290 288 285 287 287 290 292 291 289
299 300 300 301 301 302 303 304 304 304 305 305 299 299 297 302 299 297 293 289 289 286 292 293 291 289 286 284 286 284 286 285 287 284 283 283 284 285 286 287 288 289 288 288 286 286 284 284 286 285 284 285 283 281 283 280 280 279 283 284 285 285 285 285 282 283 284 282 281 279 284 282 284 282 282 283 281 291 290 279 278 285 286 287 290 289 289
299 299 300 300 301 301 302 303 304 304 304 305 301 298 298 301 300 299 293 290 288 288 290 293 290 287 286 287 285 287 287 285 285 285 284 285 284 284 285 286 285 288 289 288 286 285 285 285 283 283 283 285 284 286 278 282 279 278 277 280 280 282 282 284 281 283 283 284 282 283 283 286 282 280 281 282 282 288 283 277 282 282 281 284 288 288 287
298 299 299 300 300 301 301 302 303 303 304 304 302 299 298 301 300 299 296 291 290 286 292 293 294 291 290 291 287 287 287 288 287 285 283 284 284 286 286 285 288 284 287 285 286 284 285 284 285 284 284 282 283 281 285 280 279 282 282 280 280 281 282 282 284 282 282 283 281 281 284 286 283 281 282 282 287 281 280 284 280 281 282 285 286 286 285
298 299 298 299 300 300 301 301 302 302 303 303 302 296 299 301 301 299 295 290 290 288 290 290 291 290 290 288 286 285 285 286 287 286 285 281 286 286 286 283 286 286 284 286 282 285 283 282 283 285 280 283 282 286 280 281 282 280 282 284 282 282 281 279 281 283 281 282 280 279 277 284 282 284 285 286 284 285 284 281 281 283 283 284 285 285 285
298 298 299 298 299 300 300 301 301 301 302 302 301 297 295 299 300 300 298 295 290 287 288 292 290 293 292 290 292 292 290 287 288 285 286 285 287 286 280 281 285 284 282 285 281 283 284 282 283 282 284 283 283 282 278 280 280 283 283 283 283 287 281 281 282 286 279 280 278 279 284 284 284 286 285 284 286 286 284 283 281 282 283 283 283 284 284
297 297 298 298 299 300 300 300 301 301 302 302 302 299 293 297 298 299 300 297 290 287 287 291 292 291 291 291 292 294 294 294 294 294 287 285 286 286 285 285 286 285 286 286 283 282 284 283 283 280 280 280 283 279 282 278 278 281 280 281 280 287 283 284 281 286 283 282 283 282 283 284 283 283 283 285 285 285 283 283 282 280 282 282 282 282 282
297 297 298 298 298 299 300 300 300 301 301 302 301 297 293 296 295 298 297 289 291 291 290 288 291 291 293 292 291 291 289 291 295 295 294 288 285 285 285 285 285 286 284 286 285 285 284 283 280 284 281 282 282 279 279 281 280 280 279 284 284 282 285 283 284 282 282 283 283 283 282 284 282 283 283 284 284 281 283 283 282 282 281 282 282 282 281
297 297 298 298 298 298 299 299 300 300 301 301 301 297 295 296 295 295 294 293 287 284 287 289 287 285 286 287 289 289 291 291 294 295 295 295 286 285 286 286 287 285 284 285 285 285 284 283 282 284 280 284 284 280 278 277 279 282 280 281 282 282 282 283 282 283 283 279 280 280 282 282 281 282 282 281 281 281 281 282 282 281 281 281 279 280 281
297 297 297 297 298 298 298 299 300 300 300 301 301 301 297 294 295 294 290 284 285 285 281 283 285 290 290 292 291 289 290 293 293 294 294 294 293 288 285 288 289 288 285 285 284 286 285 282 281 280 279 285 286 279 285 281 280 284 278 282 281 280 283 282 282 280 281 279 278 279 279 280 282 282 282 282 282 281 280 280 279 279 280 280 280 282 281
296 296 297 297 297 298 298 298 299 300 300 300 300 296 294 293 296 296 293 292 290 287 283 281 282 289 290 288 286 289 292 291 292 292 293 293 293 293 287 286 285 287 286 286 286 285 282 281 281 280 281 281 287 281 280 282 280 283 282 282 284 283 285 278 282 280 277 277 278 278 278 281 281 281 281 282 282 280 280 280 279 280 280 279 279 279 280
296 296 297 297 297 297 298 298 299 299 300 300 299 298 296 296 296 293 289 289 286 282 284 283 284 281 284 286 289 289 290 290 290 290 290 290 289 289 289 287 285 285 285 283 284 283 282 281 282 279 283 280 283 281 281 279 281 279 278 282 281 282 279 281 281 277 276 277 278 279 279 278 280 281 282 281 281 281 280 279 279 279 279 279 279 278 278
296 296 297 297 297 297 297 298 298 299 300 300 299 298 298 295 295 296 295 293 288 282 284 285 282 282 286 283 289 290 291 290 289 288 288 289 289 289 287 286 285 284 283 283 280 280 281 281 279 282 280 280 280 277 280 279 280 278 278 280 282 281 281 280 279 279 278 281 281 282 282 281 282 283 283 282 282 281 280 280 279 279 279 279 278 277 277
295 296 296 296 296 297 297 297 298 298 299 298 295 295 294 297 296 297 296 297 291 285 285 285 286 284 280 284 290 288 290 289 288 287 287 286 288 288 287 287 286 285 285 284 283 282 282 282 284 281 280 284 281 276 279 273 275 276 281 282 283 283 283 283 282 279 279 280 282 281 279 279 279 282 283 282 282 281 281 280 279 279 279 279 278 278 278
296 296 295 296 296 296 297 297 297 298 299 296 288 287 285 287 296 295 297 296 293 287 284 282 278 281 285 283 283 286 286 289 288 287 286 285 285 286 286 286 285 287 284 283 283 278 281 280 280 281 281 283 281 281 275 275 275 279 282 282 283 281 281 283 282 282 280 280 281 279 279 279 279 280 281 282 281 282 280 279 279 279 279 278 278 279 279
296 296 295 295 296 296 297 297 297 298 298 291 287 284 282 281 288 297 298 296 294 288 285 285 281 285 280 284 285 284 286 287 285 285 285 285 285 284 284 284 283 284 281 282 282 281 282 277 279 278 282 283 283 278 274 274 272 276 280 281 281 281 281 280 280 280 280 279 279 278 277 277 277 277 278 279 279 280 280 279 280 281 279 278 278 278 279
294 295 295 296 296 296 296 296 296 297 296 289 287 285 286 289 294 296 298 296 292 286 284 280 281 279 278 282 281 285 286 286 286 284 283 284 281 283 282 284 282 285 285 281 280 281 277 281 280 279 279 283 283 275 277 274 275 277 279 279 280 281 280 278 278 279 279 280 280 279 278 277 277 278 277 276 277 278 277 278 278 278 279 278 277 277 277
294 295 295 295 296 296 296 296 296 296 292 295 298 298 295 295 297 298 297 293 289 285 286 283 277 280 280 278 283 282 285 284 282 283 279 284 280 282 278 284 282 280 288 282 278 276 280 279 280 278 280 282 278 277 274 274 278 279 279 279 279 279 278 278 278 279 280 281 282 279 278 278 277 276 276 276 277 277 277 276 276 276 275 275 274 275 276
294 295 295 295 295 296 295 295 296 296 296 291 286 288 292 295 298 298 295 290 286 285 285 282 279 277 276 284 276 281 286 281 280 282 277 283 282 281 278 281 280 277 278 278 280 278 277 279 276 277 279 274 279 276 273 278 280 277 278 278 278 278 278 278 278 278 279 279 279 278 278 278 277 277 277 277 276 275 275 275 275 275 273 273 273 275 275
293 294 295 295 295 295 294 294 292 290 285 287 286 291 294 297 298 299 294 289 283 281 282 282 283 277 275 275 275 280 285 283 279 282 279 280 283 278 280 276 279 276 276 284 277 277 276 275 280 277 273 278 275 271 276 278 276 277 277 277 277 278 277 277 278 277 277 278 277 277 277 277 278 276 277 276 276 275 275 274 274 276 276 275 275 275 275
293 293 294 294 294 294 289 289 288 286 285 284 285 294 298 299 298 296 294 287 285 283 281 281 281 277 278 273 273 279 286 281 283 282 281 282 278 281 279 277 273 277 280 277 273 277 274 279 278 272 278 274 273 277 278 279 279 278 277 277 278 279 279 279 278 277 276 276 276 276 276 276 276 276 276 275 275 274 274 273 273 274 274 274 274 275 275
292 292 292 293 290 286 283 284 289 287 286 291 294 298 297 291 286 290 290 287 286 285 282 282 279 279 279 278 281 282 283 276 283 278 280 277 276 281 278 276 272 279 276 274 275 274 277 283 275 272 275 274 276 280 279 278 279 279 278 278 279 278 278 278 278 277 275 274 274 275 275 275 275 275 275 276 276 273 273 273 273 273 272 273 272 273 273
293 291 287 285 282 280 280 283 285 289 295 295 294 287 285 287 283 283 284 282 284 286 281 283 279 282 283 279 273 283 282 279 282 277 278 281 279 276 280 277 275 279 269 274 275 280 279 277 273 273 274 279 281 279 279 279 279 278 278 279 279 279 279 278 277 276 274 272 273 272 272 272 272 272 275 274 273 273 274 274 274 273 273 273 272 273 274
290 285 285 285 282 279 279 281 292 296 293 291 288 282 282 284 281 279 278 282 284 279 283 282 280 282 281 279 279 285 281 280 277 279 274 281 277 274 280 271 277 278 272 275 275 283 272 275 275 274 273 276 277 280 280 279 278 278 278 278 279 279 279 278 278 278 276 276 277 277 277 276 276 275 274 274 273 274 273 273 273 273 272 272 272 272 271
285 282 282 282 281 283 288 293 297 292 289 282 283 281 276 280 278 273 283 276 275 280 284 277 284 282 282 279 278 277 285 281 276 276 277 279 283 276 279 273 277 276 270 273 274 280 273 271 275 272 272 276 277 279 278 277 273 269 268 268 268 270 273 277 276 275 276 276 276 275 275 275 276 276 276 275 274 272 272 272 272 270 270 270 270 269 266
284 282 282 280 283 283 286 290 287 286 282 278 278 276 276 273 275 278 278 274 275 274 283 281 281 278 280 280 282 278 284 284 283 284 281 276 282 281 275 270 280 270 270 272 278 275 273 272 273 272 273 277 273 273 274 270 267 264 263 262 264 265 267 268 266 264 268 272 271 268 265 264 264 264 266 269 271 270 269 267 264 262 262 262 262 262 262
285 284 284 284 286 287 286 285 285 281 278 280 274 270 274 275 275 268 273 273 273 277 278 279 275 279 279 282 281 282 281 284 284 282 279 274 283 277 276 275 275 270 269 275 277 273 274 269 272 272 277 270 265 265 266 265 263 261 260 260 261 262 264 265 264 262 262 265 265 263 261 259 258 258 258 260 263 263 263 262 259 258 258 259 259 258 258
292 289 286 283 282 276 282 277 279 278 270 269 269 266 270 267 269 272 272 272 272 276 278 280 278 284 280 282 280 282 281 286 281 280 278 275 282 277 273 271 271 268 272 276 274 274 271 271 271 275 270 263 262 259 259 259 260 260 259 259 259 261 263 264 262 260 259 258 258 258 257 255 255 256 257 258 259 257 256 256 256 254 254 253 255 255 254
287 286 282 280 277 275 279 269 278 272 269 271 269 266 268 267 268 266 264 266 271 274 278 276 279 279 276 282 279 279 280 281 283 278 274 277 273 272 274 269 271 276 277 270 273 271 272 274 275 271 263 262 258 257 256 256 256 258 259 258 257 258 260 262 263 262 260 259 258 257 256 256 255 255 255 255 256 256 254 254 254 254 254 253 254 254 254
281 278 278 276 272 276 274 266 276 272 268 268 272 270 270 267 270 270 271 273 274 275 279 278 281 280 278 279 279 280 282 277 284 276 273 276 271 275 271 271 274 273 269 269 271 271 271 272 268 263 265 261 257 255 255 254 255 254 255 256 255 255 256 257 258 259 258 258 257 256 255 255 254 253 253 253 254 254 254 253 253 253 253 254 253 254 254
278 276 275 270 268 273 271 268 268 265 271 273 269 271 272 273 272 271 274 274 275 277 277 279 280 280 277 277 278 277 279 278 276 275 277 275 272 270 273 275 273 267 268 269 267 268 271 273 267 261 257 255 255 254 254 254 254 254 255 253 254 254 254 254 255 257 257 258 258 256 255 254 253 252 252 252 252 252 251 251 252 252 252 254 253 253 253
277 277 276 274 270 272 273 267 267 269 270 272 273 275 275 275 274 274 272 274 277 279 280 278 279 280 277 275 274 274 274 277 274 276 276 270 270 273 276 270 268 270 267 266 267 267 272 264 257 255 253 253 252 252 252 253 252 253 253 253 253 253 253 253 253 253 254 256 256 255 253 252 252 251 251 251 251 251 251 251 251 252 252 252 252 252 252
275 276 275 268 268 270 268 268 267 265 266 268 267 268 271 272 272 269 270 272 279 281 278 277 275 277 275 278 277 274 273 274 273 272 274 273 273 266 268 268 268 271 270 269 270 268 261 256 255 253 252 252 251 250 251 251 251 250 250 251 251 251 251 251 251 252 253 253 252 252 251 251 251 251 251 250 250 250 250 250 251 251 252 252 251 252 252
276 273 271 267 266 267 268 268 270 267 266 267 268 269 270 271 270 272 271 273 278 278 280 278 277 278 273 276 274 274 270 275 270 270 272 268 267 266 267 262 267 265 268 266 262 255 255 254 254 252 251 251 251 250 250 250 250 250 250 250 250 250 251 251 251 251 252 253 252 252 252 253 252 252 252 251 250 250 250 251 251 251 251 251 251 251 251
270 266 266 265 266 266 268 269 270 266 265 266 268 268 269 270 270 267 268 272 278 278 279 279 279 275 274 273 269 271 270 271 271 273 268 268 268 269 268 263 266 267 265 255 254 253 253 253 254 252 252 250 251 249 248 248 250 249 249 250 250 251 251 251 251 251 251 251 251 252 252 253 252 251 251 250 250 251 250 250 249 250 250 250 251 251 251
268 264 261 261 262 262 264 267 268 266 265 264 262 261 263 265 265 265 264 265 275 277 274 272 273 272 271 270 270 266 267 275 271 269 270 268 269 268 267 268 261 253 252 252 252 253 253 252 251 251 251 251 250 249 248 248 249 249 249 249 250 251 251 251 251 251 250 250 251 251 251 250 251 250 251 251 252 252 251 250 249 249 249 249 249 249 250
266 262 260 262 261 259 258 263 263 262 260 260 260 260 262 262 262 261 264 263 273 275 272 272 271 270 269 268 270 272 273 271 269 269 265 260 255 263 261 255 253 253 254 253 253 253 253 252 251 251 250 249 249 249 248 248 248 248 247 248 248 249 250 250 250 250 250 250 250 249 250 249 250 251 252 253 253 252 250 249 249 248 249 249 247 248 248
Wind_Speed
14 14 15 16 14 13 13 12 12 10 8 4 2 5 5 8 13 3 23 25 26 17 15 13 11 11 16 15 11 2 5 12 9 10 13 14 17 11 9 12 8 9 7 9 7 12 5 12 12 7 10 8 12 9 19 13 14 10 1 3 1 10 3 4 4 2 2 2 2 1 1 1 1 3 4 9 15 15 12 7 2 5 3 4 2 7 6
15 15 15 16 13 13 12 12 11 10 6 4 2 7 5 4 9 3 14 28 23 15 14 15 13 10 11 13 15 10 6 8 11 13 18 15 12 18 11 8 15 7 7 4 6 11 5 11 13 7 7 5 8 14 15 21 11 12 10 10 9 5 3 6 4 1 0 0 3 3 2 1 4 6 10 10 7 6 8 2 2 4 11 6 6 17 7
16 15 15 15 13 13 12 11 11 10 9 6 5 4 2 2 3 3 7 17 19 18 15 15 16 15 17 16 19 16 11 7 11 11 13 15 14 9 17 13 5 10 5 6 6 7 15 4 11 10 6 6 2 9 16 20 12 9 7 11 12 5 6 8 7 11 11 9 9 10 8 12 5 3 5 9 13 12 6 9 7 11 9 10 10 16 3
16 16 15 14 15 12 12 11 10 9 8 7 4 3 3 6 7 3 4 7 11 17 18 19 17 18 18 16 15 16 17 7 9 7 9 13 13 14 7 10 9 9 12 11 11 14 11 12 2 8 5 2 1 1 15 15 11 6 12 13 12 4 4 12 13 14 14 15 6 1 8 5 8 11 12 15 13 12 10 6 7 17 3 8 20 17 9
16 16 16 14 14 13 11 10 10 8 7 5 3 3 4 1 8 5 5 2 11 8 15 16 17 20 20 15 11 21 22 15 4 8 6 10 13 11 11 6 11 11 14 18 18 15 11 7 8 8 8 1 1 6 3 9 5 14 8 12 6 3 3 13 17 18 19 18 14 4 14 14 17 15 15 16 15 16 15 14 20 7 3 18 15 5 13
17 16 16 14 14 14 13 10 10 7 7 7 4 5 4 6 2 6 3 7 7 11 11 16 15 11 17 12 7 16 18 16 11 7 12 6 10 7 2 7 17 19 20 16 12 11 12 10 13 11 6 4 1 1 1 3 4 9 3 6 7 7 9 11 13 17 19 19 17 10 10 13 13 17 17 18 18 16 20 23 20 10 13 22 9 10 16
16 15 15 14 14 15 13 11 11 8 6 4 4 6 2 1 3 4 1 6 2 7 4 8 15 17 18 9 15 13 18 19 18 10 7 10 4 12 11 18 21 19 15 13 12 11 9 14 16 10 7 6 5 4 1 3 4 2 3 4 1 4 8 10 10 13 15 18 18 13 11 8 6 10 14 16 19 23 25 23 21 19 18 20 17 10 15
16 15 14 14 13 14 14 12 10 9 7 5 7 7 6 5 4 3 0 2 5 4 5 1 4 13 16 11 14 13 17 22 17 11 9 9 14 13 19 18 17 15 14 16 16 16 19 19 16 11 12 4 5 7 8 4 1 2 5 4 3 5 6 5 2 4 15 20 15 11 15 13 14 12 10 15 19 22 22 18 19 16 18 24 18 13 20
16 15 14 13 14 13 14 13 10 8 4 4 5 3 4 1 0 1 4 3 2 1 5 8 6 3 9 14 12 12 17 20 19 18 19 19 13 13 21 22 15 11 14 16 19 21 20 19 18 6 11 12 10 10 3 10 7 6 4 2 1 4 4 4 3 7 15 17 13 13 11 11 13 17 19 22 19 14 10 16 16 13 21 20 13 15 21
16 15 14 13 13 13 13 13 12 9 6 4 2 4 0 1 1 1 1 5 2 4 2 3 6 10 5 7 16 11 22 24 17 12 10 17 15 13 18 17 13 12 15 19 23 23 13 9 4 2 2 6 5 8 4 11 11 8 9 4 6 7 5 7 7 11 15 17 5 11 10 9 13 19 31 29 15 12 14 16 15 19 18 13 15 21 19
16 14 13 12 12 13 13 13 14 12 5 5 4 3 2 3 2 1 1 4 1 2 3 3 8 1 3 8 9 10 12 13 11 12 3 8 18 11 11 17 15 12 18 16 7 0 2 4 6 3 4 2 2 3 5 7 11 13 11 4 4 6 9 9 6 8 11 5 4 4 5 13 19 13 5 12 18 19 18 18 21 19 15 16 15 9 2
16 14 13 12 11 12 12 12 14 13 9 6 3 4 2 1 1 1 2 6 3 5 6 4 6 2 4 4 8 8 13 14 12 11 14 3 2 3 6 8 9 11 1 6 10 9 8 5 7 7 8 7 3 2 6 11 7 5 9 13 9 13 11 11 6 5 8 4 7 5 15 19 6 5 3 1 10 17 21 23 17 15 16 15 14 9 6
14 14 12 12 11 12 11 11 13 14 11 5 4 6 3 2 2 4 4 3 4 5 5 4 3 3 4 5 3 6 1 3 3 1 7 11 4 2 4 9 13 3 4 6 11 9 4 2 3 2 2 3 4 3 4 7 8 6 6 7 11 11 13 5 3 4 3 3 8 8 13 2 5 3 1 5 1 5 9 15 20 18 18 19 19 18 8
13 12 12 12 11 11 11 10 11 14 13 9 6 7 4 3 4 3 3 3 3 4 4 3 3 2 5 7 7 3 1 3 2 2 2 3 6 8 2 3 1 1 2 3 6 8 2 2 3 2 2 2 2 2 5 3 2 8 13 9 5 11 7 7 7 7 9 7 11 16 5 12 9 0 3 6 8 7 12 12 16 16 15 16 16 16 7
13 11 11 11 11 11 11 11 10 12 14 12 6 5 5 4 4 2 2 3 3 1 5 7 7 9 9 5 6 5 4 3 8 4 1 1 3 1 0 1 2 2 2 5 3 2 4 4 3 4 2 5 8 9 5 4 0 4 2 2 4 7 14 9 11 6 11 11 9 3 5 14 17 2 4 7 3 8 11 10 10 2 8 9 11 12 9
13 13 10 10 11 12 11 10 10 11 14 14 6 5 5 5 4 2 2 3 4 5 7 10 4 6 7 4 8 10 6 5 4 3 3 2 2 2 1 2 3 3 1 2 2 5 4 6 5 8 7 8 1 5 4 4 1 1 2 1 2 1 2 5 14 6 7 9 9 9 11 9 2 3 2 2 1 3 4 3 12 1 2 9 13 11 11
14 14 12 10 10 11 12 11 11 11 12 14 6 5 5 4 5 4 2 1 3 5 0 8 6 6 5 5 3 1 2 4 5 5 4 4 3 3 1 1 2 2 0 4 1 4 5 4 3 3 1 3 4 5 5 3 4 0 2 3 4 6 5 5 7 8 8 11 9 10 5 4 2 2 1 1 1 6 8 5 7 2 1 1 5 7 9
12 14 14 11 9 10 12 12 11 12 12 13 7 3 4 4 6 2 3 3 4 4 3 9 10 5 7 6 6 3 5 3 3 1 2 1 4 2 4 1 2 1 1 7 5 5 7 7 10 8 8 2 1 4 6 7 5 7 8 11 7 6 3 9 15 14 13 12 9 3 4 2 2 4 4 2 1 4 9 8 1 2 2 2 2 3 5
14 14 13 13 10 10 10 12 13 12 11 10 6 4 6 3 4 4 2 3 4 5 5 2 1 4 1 4 3 3 3 6 5 5 3 2 1 2 5 2 1 3 2 5 5 6 8 5 2 2 5 3 2 6 2 6 5 4 9 8 1 3 3 1 4 9 11 11 11 7 1 2 3 3 1 2 5 6 8 2 1 1 0 2 3 5 4
15 14 15 13 12 11 10 11 13 13 12 11 7 5 2 3 7 9 6 5 3 3 4 6 4 9 4 8 8 5 2 3 3 5 3 3 1 5 3 3 2 2 2 0 4 2 3 5 5 2 2 4 4 2 3 0 3 6 3 4 5 11 10 9 11 5 1 1 6 2 8 2 5 5 3 1 4 1 3 3 2 1 1 2 2 4 4
15 16 15 15 14 13 12 11 12 14 13 13 9 4 6 2 3 5 3 1 2 3 3 1 2 2 3 3 4 12 16 12 11 6 4 5 6 3 4 3 4 3 4 4 7 4 3 3 4 2 1 3 3 4 3 3 1 3 3 2 1 3 4 3 5 4 6 8 9 5 1 5 2 2 6 2 2 2 5 3 2 0 1 2 2 1 4
16 17 17 16 15 14 13 12 12 13 13 13 10 3 6 2 3 5 2 1 2 3 0 1 2 2 2 1 1 0 1 5 9 6 9 6 2 3 1 2 3 2 1 2 2 2 2 1 2 2 3 1 3 4 1 4 3 2 2 1 3 2 4 0 4 1 4 3 2 1 3 2 2 3 1 1 2 2 1 2 5 5 4 2 2 4 2
17 17 17 17 17 16 15 14 12 12 13 13 9 5 7 3 0 1 4 3 2 1 2 0 2 1 1 1 1 0 1 2 2 5 6 9 4 0 2 5 2 1 1 1 1 1 1 3 3 2 3 0 5 3 1 1 1 3 5 5 2 3 2 0 2 2 2 4 2 2 2 4 3 2 1 3 3 0 1 5 4 2 4 5 3 2 4
18 18 18 17 17 17 16 15 14 13 13 13 8 4 6 4 3 2 1 2 2 1 0 1 4 5 8 9 2 1 1 1 0 2 0 6 8 3 2 2 1 2 1 1 1 2 2 2 1 1 3 2 5 2 5 3 4 3 1 2 2 2 1 2 2 1 3 2 2 1 4 4 2 3 1 1 1 1 1 2 2 2 3 3 3 4 5
19 19 19 18 18 17 17 16 15 14 13 14 11 7 3 2 2 5 6 5 4 4 4 2 6 0 2 3 6 3 1 0 2 3 2 2 5 7 5 2 3 4 5 3 1 3 2 3 0 1 3 3 4 3 1 3 2 5 3 3 2 2 4 2 2 1 2 0 2 1 0 1 1 2 4 4 2 1 2 2 2 3 4 4 4 5 5
20 20 19 20 18 18 18 17 16 15 14 14 10 5 6 7 4 2 2 1 2 1 4 3 3 2 0 6 3 1 3 3 3 4 3 3 3 6 10 4 4 3 5 2 1 4 2 3 1 0 2 2 2 2 0 1 1 1 4 3 2 3 6 3 4 4 2 2 0 1 3 1 2 3 3 2 3 3 1 2 2 4 5 5 5 3 4
20 20 20 20 19 18 18 18 16 16 14 13 6 5 6 4 6 8 6 4 3 2 2 2 3 1 0 3 1 3 3 4 5 6 6 5 8 6 8 8 9 4 6 4 2 3 2 2 1 2 0 1 2 0 2 1 1 1 2 2 2 6 3 2 5 3 3 5 5 6 6 3 5 7 7 6 4 4 3 3 2 4 5 4 6 4 4
22 21 20 20 20 19 19 18 17 17 15 13 6 5 4 6 7 8 6 3 1 1 1 4 3 3 2 2 1 3 4 5 6 7 6 6 6 8 9 9 7 6 3 5 2 2 2 4 2 1 2 1 3 1 2 0 1 2 5 4 4 5 4 5 4 5 3 4 9 8 3 3 7 11 9 8 6 5 5 6 5 4 4 6 7 5 3
23 22 21 21 19 19 19 19 17 16 16 11 3 4 3 6 6 7 9 4 3 2 2 2 3 5 6 5 6 4 2 5 7 7 7 6 7 7 9 8 7 6 3 3 3 2 3 3 3 4 3 4 4 1 3 1 2 8 5 6 6 3 3 6 6 5 0 3 9 6 4 4 3 6 8 8 6 6 6 4 4 5 5 5 5 4 5
21 22 22 21 21 19 20 19 18 16 13 4 1 1 1 2 7 9 10 10 7 2 3 2 3 2 3 4 1 3 3 4 5 8 7 6 6 6 7 7 4 3 3 3 4 4 2 3 1 0 0 2 4 2 3 3 3 4 3 7 6 4 5 5 7 7 3 3 6 5 6 4 1 5 6 6 6 7 5 4 4 4 3 4 4 2 2
21 22 23 21 20 20 19 20 19 17 12 3 3 4 4 5 4 9 13 11 7 4 2 1 3 2 3 1 2 3 7 6 6 7 6 6 4 4 2 4 1 3 4 3 3 3 2 2 3 2 1 1 1 2 4 2 3 2 4 8 8 8 8 5 2 5 7 5 5 3 3 3 2 3 1 1 3 4 2 1 1 4 4 4 3 3 2
21 20 19 20 19 19 19 21 20 17 7 7 7 5 2 1 3 10 16 12 8 3 4 5 3 2 2 2 1 2 4 6 5 3 2 2 2 1 3 1 3 0 2 3 2 1 1 3 3 4 4 4 3 1 1 2 6 5 3 6 5 6 5 6 5 4 6 8 8 5 2 1 1 6 5 4 4 4 5 4 4 5 6 4 4 3 2
17 17 18 18 19 19 20 20 20 14 8 8 13 11 0 4 5 12 14 11 5 1 1 1 3 3 2 5 3 3 2 5 4 4 3 0 3 1 2 1 1 2 5 2 2 3 2 3 3 4 4 1 3 2 2 8 10 3 9 7 6 5 5 4 5 5 8 7 8 8 6 8 5 3 4 5 5 6 5 6 4 5 5 5 4 3 1
14 15 16 18 19 19 17 19 19 18 12 7 3 7 8 4 3 15 13 8 3 2 2 2 3 3 4 3 5 4 2 6 5 6 5 1 2 4 3 2 1 2 2 5 4 4 2 2 2 4 1 2 1 1 4 11 4 6 5 5 4 4 5 5 5 6 5 5 1 2 4 3 3 4 4 5 5 4 5 5 4 3 2 2 2 3 3
9 12 13 13 16 17 19 17 9 6 5 3 2 3 5 12 11 19 15 7 6 2 3 2 1 4 3 2 3 4 3 3 6 5 4 2 2 4 3 3 3 3 5 4 1 4 3 3 4 5 4 2 3 2 11 3 10 7 5 5 4 5 4 4 2 2 3 3 3 4 4 5 6 4 4 2 3 3 4 3 2 2 0 2 1 1 0
6 9 13 16 16 12 1 2 2 5 6 4 3 7 14 15 17 12 11 1 1 2 5 3 5 5 5 8 7 4 4 4 4 4 2 2 3 2 1 3 2 4 1 2 4 3 4 5 3 2 4 5 8 12 4 8 10 9 10 9 8 9 8 9 7 5 4 3 5 3 4 3 4 3 3 3 4 4 4 4 2 2 1 1 2 1 0
7 6 8 7 3 2 2 3 2 5 4 5 5 7 11 11 6 4 8 3 1 1 1 4 6 7 7 4 2 3 7 7 5 4 4 3 5 2 2 1 4 2 4 0 2 2 4 2 5 4 6 10 13 10 4 5 7 8 7 8 9 5 5 6 7 9 6 5 5 1 1 1 1 2 4 4 4 4 4 3 4 4 3 5 4 2 3
4 3 3 2 3 2 2 4 4 6 9 12 13 7 4 1 3 1 2 3 2 3 2 1 5 5 3 6 5 8 8 5 5 6 3 4 5 1 2 1 3 3 3 3 3 3 2 3 2 6 7 9 11 2 3 4 5 4 5 6 8 7 7 7 7 8 7 3 0 1 1 1 3 4 5 5 4 4 5 5 3 2 2 2 3 2 0
6 1 1 2 3 3 4 4 8 14 10 2 1 2 2 2 4 4 3 3 3 5 3 4 5 5 8 5 4 4 2 8 9 5 6 7 5 4 3 3 5 3 3 1 5 5 2 3 2 3 7 8 8 12 3 4 3 3 4 4 6 9 8 7 8 11 10 9 10 10 10 9 8 8 5 5 4 4 3 3 2 2 2 1 1 1 1
2 2 2 1 4 3 1 7 20 10 3 3 2 3 3 3 4 3 2 4 2 1 4 7 4 5 7 11 13 8 4 7 11 10 8 7 1 4 3 2 3 4 4 5 3 5 6 7 5 3 9 11 14 7 4 5 7 4 6 7 8 7 5 1 2 3 1 1 3 2 0 1 2 5 6 7 5 4 3 2 1 2 3 2 3 4 3
2 0 0 3 1 1 3 5 3 2 3 3 2 0 2 2 2 2 3 4 3 3 3 4 5 4 2 2 8 9 3 2 1 4 5 3 3 5 3 4 3 4 3 3 2 5 2 2 3 7 13 9 1 3 6 9 6 4 6 6 6 6 5 6 8 8 5 5 5 7 7 7 8 8 5 2 3 3 3 3 4 4 4 4 4 3 2
2 2 0 2 2 4 3 2 3 2 1 1 2 2 3 2 2 5 1 4 5 2 3 4 7 10 9 11 7 5 2 1 3 3 3 3 3 5 4 1 1 4 3 3 5 2 4 4 6 6 8 3 3 4 6 8 5 4 6 7 7 6 6 6 8 9 9 7 6 6 5 8 9 8 6 5 5 5 5 5 6 6 5 3 2 3 3
9 2 1 1 0 1 1 4 3 2 2 1 2 1 1 1 3 4 3 0 3 2 4 3 1 5 3 4 5 2 2 2 4 2 2 5 2 3 2 2 2 3 4 1 4 4 4 7 7 11 3 5 4 5 5 4 4 5 6 6 6 6 6 7 8 8 7 8 8 7 5 7 9 6 5 5 6 8 7 6 4 3 3 3 4 3 3
4 4 5 2 2 2 2 7 2 2 1 2 4 6 3 1 1 3 2 3 2 2 4 10 9 13 9 3 6 3 2 2 1 3 2 0 4 3 2 3 4 2 3 3 2 5 7 3 7 3 5 4 4 5 5 4 5 3 5 7 7 7 7 5 7 8 8 7 7 6 6 6 6 5 5 6 6 7 6 4 3 3 3 4 6 5 4
5 5 3 2 2 2 3 3 1 3 6 4 4 6 5 9 6 4 6 3 4 6 5 2 8 13 11 4 4 1 3 4 2 4 3 3 3 2 3 4 2 2 3 3 2 1 1 6 1 7 5 4 3 4 4 5 4 3 2 3 7 8 8 8 8 7 6 6 6 6 8 6 6 6 7 7 6 6 6 5 4 4 4 5 5 6 5
8 6 3 3 4 3 3 2 2 1 2 3 4 5 7 7 5 4 1 3 5 3 7 7 7 8 6 1 6 5 4 3 4 2 2 2 5 3 1 1 4 4 2 3 4 7 11 7 6 5 5 5 4 4 4 5 6 3 3 5 6 6 6 6 6 6 6 6 6 7 6 5 5 6 7 6 6 7 7 5 5 4 3 6 7 6 5
2 1 2 1 2 2 1 3 5 2 1 4 5 7 8 7 5 6 3 4 6 7 7 4 4 5 9 4 4 3 1 1 3 2 4 3 4 1 3 4 3 3 7 7 4 4 7 3 2 4 3 3 3 4 3 5 6 5 3 3 4 5 5 5 5 6 5 6 7 7 5 5 5 5 4 7 8 8 7 6 6 6 7 6 5 5 7
7 1 2 3 4 3 8 3 3 3 1 1 0 2 1 2 7 1 3 4 6 8 10 8 6 4 3 3 4 4 3 2 4 2 1 3 3 4 2 2 2 2 2 6 9 3 4 4 2 3 3 3 3 3 4 4 4 5 4 2 2 4 5 6 6 6 6 7 6 6 6 6 5 6 7 7 7 7 7 6 5 5 6 7 5 6 7
4 2 3 2 0 1 0 3 8 5 1 1 1 2 0 4 4 4 1 1 6 9 9 9 8 8 3 1 3 3 1 3 5 4 3 3 4 4 5 5 4 3 2 1 2 3 2 3 3 4 3 4 4 4 4 4 3 3 5 5 2 2 4 5 6 5 5 5 6 6 6 5 5 5 5 6 8 6 5 6 6 6 6 6 6 7 7
4 4 5 3 2 1 4 2 5 6 2 1 2 2 3 2 5 2 7 1 4 7 6 8 5 5 2 3 2 0 0 1 2 2 4 3 3 3 5 2 4 6 5 3 2 2 2 2 3 4 4 3 4 4 3 3 4 3 2 2 3 2 3 4 5 6 5 5 6 6 5 6 6 5 7 8 6 5 6 7 7 7 7 5 5 6 7
3 5 4 2 2 1 5 3 7 7 5 3 3 2 4 2 2 2 6 4 1 6 2 4 3 3 3 1 1 3 3 2 4 2 4 3 1 1 4 6 1 3 2 3 2 3 3 3 3 2 3 3 3 3 3 2 3 2 1 0 1 4 4 4 4 5 6 5 5 6 8 6 6 6 5 5 6 7 9 9 7 6 6 7 6 6 7
3 4 3 4 5 5 5 4 6 8 5 2 3 5 4 2 5 6 7 5 3 10 7 2 4 3 2 3 3 1 2 3 1 3 4 2 4 1 1 3 4 4 4 4 4 4 4 3 4 4 4 3 4 4 3 3 1 2 3 1 0 3 5 5 5 5 5 6 6 6 6 4 3 3 3 4 5 7 9 6 5 5 6 6 5 6 6
Wind_Direction
296 303 310 307 288 291 296 296 300 307 311 233 182 175 230 205 227 66 152 148 158 176 208 193 207 204 215 223 229 298 208 220 218 209 208 220 225 238 223 220 222 219 216 195 185 170 202 189 209 198 214 217 196 163 180 151 166 151 61 57 319 83 137 188 252 117 67 49 156 50 28 73 3 267 198 172 204 195 207 210 154 205 203 196 250 246 270
291 297 305 309 289 281 288 289 292 295 296 273 201 211 244 235 223 192 174 159 158 178 199 195 208 217 230 222 227 217 239 220 212 212 200 208 207 218 229 222 223 234 207 217 209 164 220 204 207 222 190 229 182 171 173 156 168 166 192 166 186 129 253 140 110 328 185 56 6 340 4 43 216 203 206 210 213 208 228 278 62 283 224 169 160 248 237
283 289 298 307 291 276 282 286 286 289 298 289 262 229 204 238 301 198 201 171 166 196 184 201 198 208 216 212 213 214 226 219 231 221 212 202 216 207 222 225 183 225 221 235 234 190 206 226 209 215 188 218 336 176 167 171 171 195 173 154 161 151 157 142 183 211 221 227 210 205 204 213 225 244 210 209 209 199 168 225 209 234 241 161 228 250 234
280 282 289 300 304 276 269 277 283 285 299 309 252 239 224 194 229 167 204 240 191 195 193 197 194 204 212 219 220 216 227 218 220 231 252 217 209 223 225 217 209 211 214 234 228 229 212 212 158 194 213 182 322 288 172 175 181 155 136 149 150 159 176 180 193 210 227 235 252 112 139 104 192 215 193 214 212 210 205 221 211 225 213 187 230 237 260
278 277 280 293 304 282 257 266 275 282 299 297 268 268 244 225 225 159 226 202 243 229 194 200 195 204 187 209 178 212 217 214 212 194 233 225 222 217 214 189 196 208 208 217 230 226 231 224 230 202 202 61 170 16 21 192 128 120 116 153 95 95 167 207 205 212 232 243 241 221 162 184 206 200 209 210 202 203 202 206 227 194 201 254 240 201 249
276 276 276 286 297 290 261 259 265 272 286 301 240 244 183 235 247 192 211 191 202 216 230 196 198 197 181 209 177 214 213 209 215 178 227 230 226 211 243 216 208 203 205 208 223 215 226 214 226 222 200 106 63 86 18 178 176 144 142 175 155 155 205 213 207 225 234 241 245 233 192 198 198 204 204 203 206 202 207 222 228 187 210 241 237 178 234
273 275 278 281 293 294 261 250 258 261 281 280 239 241 206 253 345 296 296 219 192 220 10 202 192 189 185 201 209 210 208 211 211 198 179 216 216 205 210 216 217 211 204 202 219 206 207 226 223 213 193 165 136 160 10 280 79 86 106 174 214 136 229 218 195 229 244 245 243 234 218 221 220 213 215 207 202 209 210 219 220 215 230 242 249 230 235
270 275 276 278 285 293 268 250 254 259 270 267 255 234 232 197 180 247 341 328 303 160 179 31 236 215 183 196 204 199 203 216 216 218 197 200 214 198 221 222 217 216 211 209 218 214 215 215 219 209 197 185 177 197 185 135 43 130 172 167 306 161 235 205 151 229 250 249 244 239 242 248 249 243 230 221 216 214 211 215 225 224 241 244 244 251 258
267 273 272 273 279 286 278 249 245 250 250 238 228 247 202 329 220 175 137 229 238 159 195 209 215 299 208 207 208 203 212 223 212 214 210 208 197 197 214 222 219 211 219 220 226 226 221 223 226 200 184 208 203 184 219 142 151 169 144 131 270 143 265 45 116 218 250 247 233 235 242 247 253 254 247 238 222 217 204 218 218 202 225 236 241 248 251
264 269 271 269 272 279 277 252 239 239 219 241 260 244 142 31 249 187 155 226 177 209 180 198 168 221 218 221 216 205 214 221 206 222 215 223 223 203 214 223 216 218 217 223 227 231 233 250 281 251 181 246 233 200 186 162 153 172 188 151 155 180 175 190 183 219 240 251 191 223 225 239 253 247 239 233 225 219 216 224 219 214 215 224 224 232 243
259 264 268 268 267 273 282 259 226 226 209 225 227 246 153 181 185 318 28 168 303 161 215 226 203 183 166 214 253 235 243 231 217 210 220 201 224 217 210 215 210 216 218 225 240 286 77 85 86 45 75 84 142 188 189 199 180 171 166 143 187 176 195 215 180 230 238 257 144 122 168 220 229 243 268 220 218 212 216 222 219 218 201 221 225 247 264
256 259 264 271 269 273 278 272 233 215 208 229 275 273 220 235 136 123 144 208 218 174 191 224 191 207 169 212 230 236 234 232 226 209 224 206 254 153 204 225 206 222 225 81 104 99 90 70 61 67 54 48 60 130 182 195 208 202 175 174 172 190 190 216 171 200 231 124 103 176 214 227 236 0 277 360 223 211 217 232 229 222 221 233 247 242 195
254 258 263 266 271 269 275 283 248 219 215 209 221 253 224 232 246 182 163 159 224 147 167 235 197 183 159 202 219 238 312 7 25 288 234 212 210 195 222 219 215 205 113 132 119 127 133 126 52 83 71 45 30 29 189 194 203 187 224 205 171 186 189 171 202 155 37 128 180 226 229 259 310 296 19 241 127 205 210 239 239 227 216 215 227 233 205
259 258 261 267 272 275 276 282 280 235 216 210 219 227 233 189 210 186 164 135 243 173 171 144 94 162 177 199 199 205 133 271 348 2 140 2 207 182 120 50 352 15 288 124 115 124 85 88 194 133 277 84 23 246 224 200 232 197 196 211 203 185 182 173 224 169 212 198 208 234 337 320 260 197 213 149 173 176 182 219 240 225 214 208 219 227 177
270 263 264 267 270 276 276 275 288 260 225 214 207 240 233 222 237 251 263 193 200 178 190 203 192 204 184 173 151 168 198 188 200 233 5 16 74 23 60 341 291 301 277 136 130 101 150 137 176 155 160 148 206 223 85 225 192 359 310 229 196 187 188 190 205 215 201 216 232 248 261 243 259 197 212 199 214 190 185 195 266 226 208 199 201 215 159
271 267 262 265 271 275 272 274 276 278 238 212 206 226 239 219 216 294 246 162 145 225 209 216 156 137 150 189 181 189 190 182 179 109 150 111 110 82 319 241 274 224 68 76 128 129 147 159 188 185 200 197 163 87 235 138 297 360 31 13 138 335 253 185 203 199 165 214 220 217 222 244 102 201 227 211 327 153 113 124 246 312 224 183 187 199 163
264 267 267 267 273 275 277 268 268 276 263 215 199 211 253 176 190 200 235 326 190 227 359 154 127 130 110 113 97 358 203 192 160 160 177 196 167 132 69 307 286 60 286 103 143 114 146 192 178 187 32 131 150 203 82 115 168 270 94 89 135 170 176 137 216 216 205 205 216 226 221 245 234 234 240 230 292 129 105 190 280 244 263 267 175 169 149
271 271 271 270 267 272 275 273 264 260 266 234 202 202 245 174 190 185 273 199 185 236 156 162 141 145 184 180 160 169 107 104 68 328 43 98 120 164 172 144 57 308 231 167 151 178 196 199 200 202 210 150 140 112 206 159 185 179 179 171 152 174 203 200 207 208 211 212 234 287 288 251 180 185 236 251 288 127 161 204 204 359 22 1 93 111 129
268 266 264 264 267 266 270 274 266 261 259 246 215 224 257 225 197 184 265 251 191 223 184 207 161 148 118 51 97 143 150 146 137 114 160 132 228 147 125 209 180 157 173 155 153 190 192 209 69 133 176 192 176 190 111 148 185 94 121 136 114 230 165 339 226 223 216 214 224 229 320 234 159 282 187 262 106 187 190 190 274 241 109 19 112 126 146
270 268 267 266 266 265 261 263 264 259 251 247 218 219 256 197 195 182 198 224 225 247 159 184 182 178 191 148 146 128 103 73 159 134 186 153 114 117 127 112 308 113 63 225 153 219 146 193 167 153 126 162 205 125 38 250 47 152 175 212 184 183 170 195 199 193 40 119 220 180 231 196 118 122 29 324 128 219 143 159 355 12 146 95 55 133 165
266 269 266 264 263 263 264 261 263 265 259 246 233 211 245 193 200 210 176 79 242 212 224 189 35 174 145 215 199 167 158 170 172 141 170 136 182 157 146 220 153 140 173 161 175 171 168 160 150 153 206 112 206 85 177 110 272 299 129 192 177 197 141 201 220 176 192 184 205 201 291 146 221 108 169 185 171 154 171 126 131 328 227 166 124 201 176
264 264 266 265 261 261 260 260 263 267 263 251 231 190 251 225 172 182 158 100 250 245 226 43 82 86 54 40 34 315 231 169 173 135 136 131 206 161 167 63 118 131 228 64 47 37 360 160 61 94 136 168 11 153 213 117 184 195 42 161 151 213 175 312 181 130 151 199 136 200 269 93 78 92 316 120 111 96 232 145 149 158 229 214 161 199 158
263 263 263 263 261 259 260 259 257 264 262 254 235 206 233 202 157 137 141 75 331 46 210 181 107 104 169 124 133 296 164 297 90 93 125 124 140 109 147 149 163 133 18 43 225 111 143 113 172 162 69 194 159 130 6 135 98 155 165 232 201 343 142 341 78 307 88 52 80 99 32 120 84 34 299 138 132 263 94 141 119 199 190 179 170 174 137
261 260 259 259 261 259 259 258 254 249 255 257 242 176 221 200 193 137 178 123 164 139 49 163 127 202 201 212 161 330 41 48 244 153 271 131 147 140 29 306 147 66 17 267 232 133 193 65 208 69 141 202 94 144 168 220 213 174 109 293 242 223 143 95 128 209 103 259 69 76 146 132 100 128 38 10 114 155 15 72 83 114 120 114 49 114 135
259 259 257 257 256 257 256 257 255 252 248 250 245 224 168 133 196 185 170 172 195 182 197 179 211 8 63 84 106 89 221 108 72 89 81 99 151 175 173 147 133 148 172 180 248 72 29 101 339 70 148 258 115 225 143 117 266 146 181 232 115 291 171 95 182 72 146 18 132 241 324 55 189 185 159 168 203 29 42 68 86 91 80 100 105 94 95
258 256 257 255 254 253 253 250 251 253 249 246 240 210 191 209 158 82 44 332 308 200 196 197 187 45 276 101 124 197 150 112 105 81 70 83 85 123 127 112 55 44 100 113 78 103 135 58 88 36 130 281 88 164 117 210 143 341 197 226 174 149 119 208 159 134 112 28 73 304 76 49 269 281 285 246 194 170 135 106 95 106 99 83 60 72 138
256 255 253 253 251 251 250 250 249 252 252 249 237 224 201 175 151 175 185 192 163 279 248 232 127 338 340 125 103 82 120 127 107 104 93 90 101 105 114 121 115 101 107 69 37 107 54 130 146 192 168 206 77 125 91 28 84 202 229 222 127 97 172 164 95 118 187 180 184 176 127 222 232 237 224 223 215 177 165 137 125 112 113 123 107 68 49
252 251 251 250 249 249 250 248 247 246 249 246 231 216 205 183 180 181 183 225 292 220 190 162 122 212 97 16 215 144 153 133 126 118 117 120 123 125 130 133 127 125 136 121 88 93 157 141 180 133 64 280 65 333 111 279 30 337 236 228 171 147 187 135 160 157 208 180 171 189 145 156 200 197 207 204 199 169 170 194 177 160 156 146 128 117 93
249 246 246 247 245 245 248 249 244 241 239 240 231 229 243 208 176 185 181 168 87 131 74 41 60 118 160 201 124 98 121 134 129 125 127 130 133 141 138 148 144 150 125 101 137 134 142 146 122 135 170 234 95 246 122 211 211 236 231 150 162 202 163 157 173 120 141 170 164 171 145 160 205 195 190 199 188 174 205 190 154 169 168 155 144 152 144
246 244 243 243 242 241 243 244 241 237 237 219 141 89 193 246 193 185 180 177 164 130 133 149 141 221 38 37 102 139 127 142 124 128 131 135 138 146 156 139 148 149 128 153 157 132 189 114 122 314 294 310 118 217 111 236 251 261 125 151 157 127 131 156 162 142 183 168 155 171 157 158 139 167 185 194 189 178 185 176 164 155 162 149 144 139 133
238 237 238 239 240 238 238 240 235 230 225 164 153 198 178 240 192 187 167 167 147 137 190 81 136 108 44 353 74 138 147 134 132 129 137 135 135 134 138 97 56 143 108 163 110 198 115 105 144 198 103 306 140 123 183 179 237 294 200 148 154 146 151 150 148 124 126 134 137 96 80 117 133 70 45 165 163 144 111 100 152 147 148 129 149 148 125
237 233 234 236 238 237 237 236 234 227 206 184 200 188 216 204 359 168 161 142 129 97 162 130 147 90 194 127 317 282 119 124 110 91 74 107 57 70 31 74 170 211 136 135 183 110 171 204 110 179 133 230 120 123 182 152 232 242 122 130 164 164 139 118 111 100 114 136 110 77 114 162 176 154 207 185 170 135 123 125 121 108 109 108 97 86 105
238 230 233 236 235 233 232 234 235 224 207 212 229 251 99 295 310 169 138 127 103 188 204 115 173 181 145 180 118 345 145 95 64 119 130 99 140 100 66 100 55 47 287 123 212 149 224 108 166 121 216 86 105 192 172 223 235 162 143 156 171 151 123 133 123 138 141 166 145 153 194 194 213 184 126 136 137 137 129 118 122 104 98 97 99 96 88
237 234 230 230 232 231 231 234 232 235 227 216 201 225 232 210 148 158 133 127 115 152 125 178 160 117 134 113 88 216 176 140 149 141 125 131 168 103 186 88 278 111 292 128 244 79 316 100 122 164 74 16 234 83 246 243 148 141 145 135 134 115 134 132 135 145 172 184 36 111 161 149 119 125 93 96 96 98 111 121 127 106 100 111 138 164 172
263 237 228 233 232 230 227 229 229 210 214 170 232 253 194 183 179 159 155 167 138 182 159 221 173 138 118 69 139 158 160 142 149 166 119 129 84 141 187 96 249 133 257 95 17 151 159 173 182 114 211 165 84 218 240 190 130 139 131 128 140 130 92 118 207 161 175 189 110 102 101 110 101 115 157 132 116 111 89 66 87 107 21 293 7 45 131
262 252 238 225 225 219 196 247 197 210 208 196 203 169 178 175 172 172 183 48 26 166 161 180 144 175 156 153 165 167 133 88 138 92 98 112 43 292 105 150 117 231 304 105 194 158 159 240 109 179 198 167 213 220 199 131 154 155 156 160 182 155 174 174 168 161 170 152 132 109 84 77 123 145 127 149 144 138 135 120 94 102 142 341 303 301 352
279 272 249 236 210 84 170 206 177 205 223 183 168 141 127 81 6 145 186 219 275 68 185 164 154 184 165 159 79 146 145 144 141 102 147 108 158 146 123 175 174 182 57 315 220 146 223 103 107 184 209 200 229 217 145 129 134 151 167 175 189 175 144 153 158 144 124 107 90 67 103 145 120 119 132 164 175 150 125 157 174 160 196 220 233 245 252
251 24 122 141 94 159 199 200 205 192 182 143 117 73 329 336 139 160 134 184 231 127 246 236 194 155 95 112 159 181 144 147 105 132 121 173 126 176 184 153 224 138 137 190 218 164 127 115 170 191 247 245 262 276 169 154 159 147 163 166 173 171 164 158 141 124 129 108 315 250 283 311 245 222 176 207 169 164 201 202 196 184 174 188 194 191 106
72 134 163 191 153 191 198 225 166 151 139 148 62 123 155 182 160 193 197 165 162 200 198 167 191 156 155 117 104 148 192 147 152 158 147 185 128 173 140 149 258 92 251 135 259 143 122 208 179 215 252 248 257 248 172 119 116 120 134 144 159 167 166 164 160 156 166 182 190 191 177 194 213 232 199 202 224 225 203 175 178 194 180 173 137 92 94
123 148 213 196 212 214 85 131 137 137 118 113 193 185 199 180 173 209 157 139 170 237 164 193 179 165 180 155 148 182 227 157 161 172 163 142 168 148 149 83 258 110 206 189 203 122 142 182 181 169 260 247 241 242 128 125 105 26 27 13 14 19 11 118 131 24 134 77 54 87 125 206 176 182 184 190 187 190 208 180 122 61 65 70 64 72 62
191 162 145 233 173 92 159 128 86 87 145 173 153 235 201 196 228 222 136 193 181 211 158 158 133 156 143 111 150 153 153 61 32 66 110 134 178 93 118 178 218 96 231 165 189 90 149 87 181 201 236 247 11 1 106 89 83 54 25 15 15 19 22 44 48 23 37 67 58 50 40 45 57 52 39 59 127 135 110 92 70 39 45 46 53 47 25
174 162 186 81 99 141 119 128 170 142 138 200 161 227 195 233 78 16 266 169 188 180 192 150 162 172 177 162 160 120 84 174 117 128 119 166 201 130 193 126 34 132 191 192 97 104 129 153 201 231 234 85 19 11 67 89 44 43 23 18 15 13 23 49 62 37 28 60 74 69 54 53 52 44 21 30 61 74 79 82 86 54 57 50 50 49 35
220 202 156 73 219 339 194 172 212 162 166 154 104 287 253 131 209 161 169 222 337 92 200 54 109 93 7 81 44 39 150 150 123 166 130 163 108 59 139 157 158 142 221 90 105 155 159 184 208 225 108 74 41 35 28 33 39 56 46 30 20 9 38 58 67 69 53 50 58 63 54 61 55 37 9 43 91 81 57 63 78 99 86 89 85 68 39
178 181 207 178 185 237 179 202 171 71 202 173 166 199 144 203 277 42 63 273 211 190 220 147 166 139 165 150 128 132 64 10 37 83 32 135 92 169 141 181 178 192 59 34 168 160 189 199 219 157 115 109 52 28 10 3 1 2 35 32 27 23 30 53 68 75 64 61 64 64 61 60 68 51 40 35 45 92 102 78 53 68 72 82 71 58 27
169 200 177 139 190 187 137 245 93 155 196 196 179 199 186 201 197 181 197 206 132 198 155 172 160 153 144 134 70 36 137 159 159 111 197 139 104 216 135 187 140 81 117 175 142 176 59 229 170 90 135 104 57 19 15 4 354 354 322 17 24 24 34 45 50 58 62 57 55 55 59 55 56 51 42 44 29 33 62 58 11 38 49 70 66 56 25
188 197 160 167 186 175 178 189 107 194 214 168 185 185 189 205 164 195 226 95 145 128 136 175 158 134 114 317 135 165 117 142 102 168 134 106 136 205 180 40 59 99 164 109 143 188 208 206 117 108 61 57 46 25 17 12 2 322 50 46 14 22 22 36 42 58 53 50 58 64 63 60 68 71 60 42 40 35 37 26 15 26 36 65 50 45 19
161 144 188 250 200 185 186 190 199 198 153 154 176 182 192 184 178 153 176 167 164 160 119 70 91 148 145 160 99 23 59 144 129 196 95 103 155 143 37 106 179 175 156 182 185 205 207 131 69 67 50 39 25 32 22 20 10 17 44 59 31 27 26 37 44 48 34 50 63 63 60 59 59 61 70 62 43 35 26 24 26 30 55 69 63 58 51
190 145 130 181 201 154 191 207 109 87 346 114 110 8 344 120 107 138 256 197 161 138 134 124 105 71 35 306 53 139 137 151 101 298 152 157 64 50 161 91 176 181 174 176 204 155 99 53 64 49 47 45 42 36 30 16 359 7 12 31 38 37 31 40 44 38 33 48 58 66 65 60 62 68 71 77 68 41 30 28 35 44 61 69 71 71 76
82 125 153 147 121 305 181 146 132 97 84 35 72 59 117 142 148 129 160 268 155 158 159 142 159 134 170 85 109 128 236 239 126 193 88 44 129 180 152 183 162 185 249 101 124 49 59 52 67 84 64 50 50 42 28 18 5 344 5 10 11 32 35 39 46 42 44 60 72 79 79 81 78 80 84 81 74 49 34 38 48 49 49 65 77 83 80
75 50 20 44 81 19 291 288 89 111 85 61 71 41 354 105 120 48 335 337 160 113 88 48 44 85 156 107 123 115 111 347 156 105 84 187 171 178 107 159 208 178 171 77 61 67 54 12 35 49 46 50 50 38 20 357 12 353 329 360 5 30 52 54 54 56 54 55 64 69 71 73 76 83 93 92 98 103 74 54 47 52 51 51 72 81 83
64 85 91 354 360 8 336 197 169 149 136 84 47 25 358 25 51 6 8 331 170 124 105 136 153 113 117 76 165 113 242 146 76 145 141 137 7 117 192 177 155 34 78 78 75 59 54 38 44 24 22 26 40 34 25 350 359 356 336 252 13 39 61 69 62 63 64 62 73 81 80 81 88 100 103 113 111 97 78 56 43 48 56 53 49 64 72
45 63 52 46 33 21 311 282 36 54 66 56 53 360 355 44 354 314 328 327 220 160 167 124 87 123 108 169 189 126 71 61 123 105 78 62 354 292 61 36 66 42 41 64 58 52 53 48 46 30 35 16 9 358 356 350 351 25 27 39 74 64 55 67 76 77 83 77 72 82 81 74 74 76 96 91 80 77 69 59 30 41 59 66 65 69 79